GW5187 Weather Reports


Display with metric or nautical units.
time (UTC)temp
F
wind
direction
speed
MPH
gust
MPH
rain 1hr
in
rain 24hr
in
rain mn
in
humidity
%
barometer
mb
20260506212508 65 225 9.0 16.0 0.00 0.00 0.00 69 1019.9
20260506212009 65 202 6.0 17.0 0.00 0.00 0.00 69 1019.9
20260506211525 65 234 10.0 17.0 0.00 0.00 0.00 67 1019.9
20260506211007 67 212 7.0 13.0 0.00 0.00 0.00 65 1020.0
20260506210504 67 238 4.0 11.0 0.00 0.00 0.00 64 1020.1
20260506210016 68 264 7.0 11.0 0.00 0.00 0.00 63 1020.0
20260506205507 68 78 1.0 9.0 0.00 0.00 0.00 64 1020.0
20260506205008 68 211 4.0 9.0 0.00 0.00 0.00 63 1020.2
20260506204525 68 214 3.0 10.0 0.00 0.00 0.00 64 1020.1
20260506204008 68 300 4.0 10.0 0.00 0.00 0.00 63 1020.0
20260506203508 69 343 2.0 8.0 0.00 0.00 0.00 63 1020.0
20260506203021 69 273 2.0 8.0 0.00 0.00 0.00 62 1020.1
20260506202511 69 360 2.0 8.0 0.00 0.00 0.00 64 1020.0
20260506202004 68 331 2.0 8.0 0.00 0.00 0.00 62 1020.0
20260506201509 68 317 3.0 9.0 0.00 0.00 0.00 64 1020.1
20260506201002 68 352 2.0 9.0 0.00 0.00 0.00 63 1020.2
20260506200502 68 254 4.0 9.0 0.00 0.00 0.00 64 1020.2
20260506200019 68 326 2.0 9.0 0.00 0.00 0.00 62 1020.3
20260506195503 68 340 2.0 9.0 0.00 0.00 0.00 62 1020.2
20260506195009 68 304 4.0 9.0 0.00 0.00 0.00 62 1020.3
20260506194518 68 41 2.0 6.0 0.00 0.00 0.00 64 1020.2
20260506194008 67 247 3.0 6.0 0.00 0.00 0.00 64 1020.3
20260506193508 67 29 1.0 7.0 0.00 0.00 0.00 65 1020.3
20260506193025 67 342 2.0 9.0 0.00 0.00 0.00 64 1020.4
20260506192508 68 254 3.0 9.0 0.00 0.00 0.00 64 1020.3
20260506192007 68 254 1.0 7.0 0.00 0.00 0.00 64 1020.3
20260506191524 68 9 2.0 8.0 0.00 0.00 0.00 64 1020.3
20260506191004 67 229 2.0 8.0 0.00 0.00 0.00 66 1020.5
20260506190505 67 36 2.0 9.0 0.00 0.00 0.00 64 1020.4
20260506190012 67 298 3.0 9.0 0.00 0.00 0.00 65 1020.5
20260506185505 67 294 1.0 6.0 0.00 0.00 0.00 66 1020.6
20260506185004 66 360 3.0 10.0 0.00 0.00 0.00 66 1020.6
20260506184517 66 243 3.0 8.0 0.00 0.00 0.00 67 1020.6
20260506184007 66 11 3.0 8.0 0.00 0.00 0.00 67 1020.6
20260506183505 66 269 3.0 8.0 0.00 0.00 0.00 68 1020.6
20260506183018 66 327 3.0 9.0 0.00 0.00 0.00 68 1020.6
20260506182506 65 282 3.0 11.0 0.00 0.00 0.00 68 1020.5
20260506182013 66 341 4.0 12.0 0.00 0.00 0.00 67 1020.5
20260506181522 66 16 3.0 12.0 0.00 0.00 0.00 64 1020.4
20260506180511 65 319 4.0 10.0 0.00 0.00 0.00 65 1020.4
20260506180012 65 32 5.0 9.0 0.00 0.00 0.00 64 1020.4
20260506175504 65 12 5.0 9.0 0.00 0.00 0.00 65 1020.4
20260506175004 65 5 5.0 9.0 0.00 0.00 0.00 63 1020.5
20260506174513 65 14 3.0 9.0 0.00 0.00 0.00 65 1020.4
20260506174005 65 56 4.0 9.0 0.00 0.00 0.00 65 1020.3
20260506173504 65 5 3.0 7.0 0.00 0.00 0.00 65 1020.2
20260506173019 65 25 3.0 7.0 0.00 0.00 0.00 65 1020.2
20260506172504 65 169 1.0 8.0 0.00 0.00 0.00 66 1020.2
20260506172006 65 295 3.0 8.0 0.00 0.00 0.00 64 1020.1
20260506171522 65 28 2.0 5.0 0.00 0.00 0.00 65 1020.3
20260506171008 64 77 1.0 3.0 0.00 0.00 0.00 65 1020.3
20260506170509 64 140 0.0 8.0 0.00 0.00 0.00 66 1020.4
20260506170023 64 47 2.0 8.0 0.00 0.00 0.00 66 1020.5
20260506165508 64 333 1.0 7.0 0.00 0.00 0.00 67 1020.4
20260506165005 63 40 0.0 7.0 0.00 0.00 0.00 67 1020.5
20260506164514 62 165 1.0 4.0 0.00 0.00 0.00 69 1020.4
20260506164009 62 22 2.0 4.0 0.00 0.00 0.00 69 1020.5
20260506163508 62 285 0.0 5.0 0.00 0.00 0.00 70 1020.4
20260506163026 61 22 1.0 7.0 0.00 0.00 0.00 69 1020.5
20260506162506 62 18 4.0 7.0 0.00 0.00 0.00 69 1020.6
20260506162008 62 123 1.0 6.0 0.00 0.00 0.00 69 1020.6
20260506161522 61 144 2.0 8.0 0.00 0.00 0.00 70 1020.6
20260506161009 60 112 3.0 8.0 0.00 0.00 0.00 73 1020.6
20260506160510 60 161 2.0 6.0 0.00 0.00 0.00 73 1020.6
20260506160023 59 205 2.0 6.0 0.00 0.00 0.00 74 1020.7
20260506155507 59 123 3.0 7.0 0.00 0.00 0.00 74 1020.7
20260506154536 58 82 3.0 6.0 0.00 0.00 0.00 76 1020.7
20260506154019 58 174 3.0 7.0 0.00 0.00 0.00 76 1020.7
20260506153507 58 202 2.0 8.0 0.00 0.00 0.00 77 1020.6
20260506153015 57 82 4.0 7.0 0.00 0.00 0.00 77 1020.7
20260506152506 57 117 3.0 7.0 0.00 0.00 0.00 78 1020.7
20260506152006 57 121 2.0 7.0 0.00 0.00 0.00 78 1020.7
20260506151518 56 114 1.0 6.0 0.00 0.00 0.00 79 1020.7
20260506151008 56 91 2.0 6.0 0.00 0.00 0.00 79 1020.8
20260506150507 56 84 2.0 5.0 0.00 0.00 0.00 79 1020.8
20260506150023 55 110 2.0 5.0 0.00 0.00 0.00 80 1020.8
20260506145006 55 31 1.0 4.0 0.00 0.00 0.00 82 1020.8
20260506144525 54 92 1.0 2.0 0.00 0.00 0.00 83 1020.9
20260506143513 53 295 0.0 2.0 0.00 0.00 0.00 86 1020.8
20260506142506 52 17 0.0 2.0 0.00 0.00 0.00 88 1020.8
20260506142006 51 9 0.0 2.0 0.00 0.00 0.00 89 1020.8
20260506141518 51 80 0.0 3.0 0.00 0.00 0.00 89 1020.6
20260506141008 51 360 0.0 3.0 0.00 0.00 0.00 90 1020.5
20260506140511 50 40 1.0 4.0 0.00 0.00 0.00 90 1020.6
20260506140024 50 22 1.0 4.0 0.00 0.00 0.00 91 1020.5
20260506135507 50 51 2.0 4.0 0.00 0.00 0.00 92 1020.4
20260506135006 50 352 1.0 3.0 0.00 0.00 0.00 92 1020.4
20260506134525 49 5 0.0 3.0 0.00 0.00 0.00 93 1020.4
20260506134009 49 57 1.0 3.0 0.00 0.00 0.00 93 1020.4
20260506133509 49 352 1.0 2.0 0.00 0.00 0.00 93 1020.3
20260506133024 49 84 0.0 2.0 0.00 0.00 0.00 93 1020.4
20260506132509 49 62 0.0 2.0 0.00 0.00 0.00 92 1020.3
20260506132015 49 62 0.0 3.0 0.00 0.00 0.00 92 1020.2
20260506131518 49 62 1.0 3.0 0.00 0.00 0.00 92 1020.2
20260506131008 49 33 0.0 4.0 0.00 0.00 0.00 92 1020.2
20260506130511 49 42 2.0 4.0 0.00 0.00 0.00 92 1020.1
20260506130020 49 44 0.0 2.0 0.00 0.00 0.00 92 1020.1
20260506125505 49 76 0.0 2.0 0.00 0.00 0.00 92 1020.0
20260506125010 49 76 0.0 3.0 0.00 0.00 0.00 92 1020.0
20260506124523 49 51 2.0 4.0 0.00 0.00 0.00 92 1019.9
20260506124009 49 67 0.0 4.0 0.00 0.00 0.00 91 1019.9
20260506123509 49 61 1.0 2.0 0.00 0.00 0.00 91 1019.8
20260506123023 49 19 0.0 2.0 0.00 0.00 0.00 91 1019.8
20260506122511 49 19 0.0 2.0 0.00 0.00 0.00 91 1019.8
20260506122007 50 19 0.0 2.0 0.00 0.00 0.00 91 1019.8
20260506121524 50 19 0.0 2.0 0.00 0.00 0.00 91 1019.7
20260506121010 50 19 0.0 2.0 0.00 0.00 0.00 91 1019.7
20260506120514 50 63 0.0 0.0 0.00 0.00 0.00 91 1019.7
20260506120020 50 63 0.0 2.0 0.00 0.00 0.00 91 1019.7
20260506115507 51 63 0.0 2.0 0.00 0.00 0.00 92 1019.7
20260506115007 51 63 0.0 2.0 0.00 0.00 0.00 92 1019.7
20260506114524 51 63 0.0 2.0 0.00 0.00 0.00 92 1019.7
20260506114006 51 44 0.0 1.0 0.00 0.00 0.00 92 1019.7
20260506113508 51 44 0.0 0.0 0.00 0.00 0.00 92 1019.7
20260506113024 51 44 0.0 0.0 0.00 0.00 0.00 92 1019.6
20260506112004 51 44 0.0 2.0 0.00 0.00 0.00 93 1019.6
20260506111509 51 44 1.0 3.0 0.00 0.00 0.00 93 1019.6
20260506111004 50 87 2.0 3.0 0.00 0.00 0.00 92 1019.6
20260506110504 50 107 0.0 1.0 0.00 0.00 0.00 93 1019.5
20260506110016 50 57 1.0 2.0 0.00 0.00 0.00 93 1019.5
20260506105007 50 33 2.0 3.0 0.00 0.00 0.00 93 1019.5
20260506104520 50 46 2.0 2.0 0.00 0.00 0.00 93 1019.5
20260506103004 50 54 0.0 2.0 0.00 0.00 0.00 93 1019.5
20260506102504 50 54 1.0 2.0 0.00 0.00 0.00 93 1019.6
20260506102004 49 54 0.0 2.0 0.00 0.00 0.00 93 1019.6
20260506101510 49 47 0.0 0.0 0.00 0.00 0.00 93 1019.6
20260506101008 49 47 0.0 0.0 0.00 0.00 0.00 93 1019.6
20260506100504 49 46 0.0 2.0 0.00 0.00 0.00 93 1019.7
20260506100013 49 46 0.0 2.0 0.00 0.00 0.00 92 1019.7
20260506095504 48 59 0.0 2.0 0.00 0.00 0.00 92 1019.7
20260506095005 48 59 0.0 2.0 0.00 0.00 0.00 92 1019.8
20260506094521 48 61 0.0 2.0 0.00 0.00 0.00 92 1019.8
20260506094007 48 61 0.0 2.0 0.00 0.00 0.00 92 1019.8
20260506092507 48 52 0.0 2.0 0.00 0.00 0.00 91 1019.8
20260506092004 48 52 0.0 2.0 0.00 0.00 0.00 91 1019.7
20260506091508 48 52 0.0 2.0 0.00 0.00 0.00 90 1019.7
20260506091003 49 52 0.0 2.0 0.00 0.00 0.00 90 1019.6
20260506090504 49 52 0.0 2.0 0.00 0.00 0.00 91 1019.7
20260506090011 49 52 1.0 4.0 0.00 0.00 0.00 91 1019.8
20260506085505 49 61 1.0 4.0 0.00 0.00 0.00 91 1019.7
20260506084517 49 55 0.0 2.0 0.00 0.00 0.00 90 1019.6
20260506083507 49 32 2.0 3.0 0.00 0.00 0.00 89 1019.4
20260506083019 49 58 1.0 2.0 0.00 0.00 0.00 89 1019.4
20260506082511 50 52 0.0 2.0 0.00 0.00 0.00 89 1019.4
20260506081524 50 52 0.0 3.0 0.00 0.00 0.00 89 1019.4
20260506080504 51 27 0.0 2.0 0.00 0.00 0.00 88 1019.5
20260506073510 52 27 0.0 2.0 0.00 0.00 0.00 86 1019.5
20260506073018 52 27 0.0 2.0 0.00 0.00 0.00 86 1019.4
20260506071524 53 27 1.0 2.0 0.00 0.00 0.00 86 1019.4
20260506070507 53 23 0.0 2.0 0.00 0.00 0.00 86 1019.3
20260506061520 53 336 0.0 0.0 0.00 0.00 0.00 86 1019.1
20260506044525 54 336 0.0 2.0 0.00 0.00 0.00 85 1018.6
20260506043013 54 336 0.0 0.0 0.00 0.00 0.00 84 1018.6
20260506042504 54 336 0.0 0.0 0.00 0.00 0.00 84 1018.6
20260506041518 54 336 0.0 0.0 0.00 0.00 0.00 84 1018.6
20260506040021 54 336 0.0 0.0 0.00 0.00 0.00 84 1018.5
20260506035508 54 336 0.0 0.0 0.00 0.00 0.00 84 1018.3
20260506035008 54 336 0.0 0.0 0.00 0.00 0.00 84 1018.2
20260506034523 54 336 0.0 0.0 0.00 0.00 0.00 83 1018.1
20260506034009 54 336 0.0 0.0 0.00 0.00 0.00 83 1018.0
20260506033508 54 336 0.0 0.0 0.00 0.00 0.00 83 1017.9
20260506033026 54 336 0.0 1.0 0.00 0.00 0.00 83 1017.8
20260506032509 54 336 0.0 1.0 0.00 0.00 0.00 83 1017.7
20260506031513 55 336 0.0 2.0 0.00 0.00 0.00 82 1017.7
20260506030018 55 336 0.0 2.0 0.00 0.00 0.00 81 1017.4
20260506024521 55 261 1.0 3.0 0.00 0.00 0.00 79 1017.4
20260506024010 55 275 0.0 4.0 0.00 0.00 0.00 79 1017.5
20260506023507 56 360 1.0 4.0 0.00 0.00 0.00 78 1017.5
20260506023025 56 285 1.0 3.0 0.00 0.00 0.00 77 1017.5
20260506022508 57 271 1.0 3.0 0.00 0.00 0.00 76 1017.5
20260506020030 60 297 1.0 4.0 0.00 0.00 0.00 70 1017.4
20260506013023 60 275 1.0 4.0 0.00 0.00 0.00 67 1017.2
20260506005003 58 296 2.0 7.0 0.00 0.00 0.00 74 1017.1
20260506003508 58 310 0.0 4.0 0.00 0.00 0.00 74 1017.1
20260506003025 58 258 1.0 4.0 0.00 0.00 0.00 74 1017.1
20260506002011 58 279 1.0 6.0 0.00 0.00 0.00 75 1017.1
20260506001524 58 186 1.0 7.0 0.00 0.00 0.00 74 1017.0
20260506000504 58 277 1.0 4.0 0.00 0.00 0.00 75 1016.8
20260506000010 58 234 1.0 7.0 0.00 0.00 0.00 76 1016.8
20260505235504 58 222 3.0 7.0 0.00 0.00 0.00 75 1016.8
20260505233021 57 329 0.0 7.0 0.00 0.00 0.00 77 1016.8
20260505231529 57 215 3.0 10.0 0.00 0.00 0.00 78 1016.9
20260505230509 57 211 3.0 8.0 0.00 0.00 0.00 78 1016.8
20260505224514 58 223 4.0 11.0 0.00 0.00 0.00 78 1017.0
20260505223017 58 231 8.0 13.0 0.00 0.00 0.00 75 1017.1
20260505222013 58 282 6.0 11.0 0.00 0.00 0.00 76 1017.0
20260505215508 58 306 5.0 9.0 0.00 0.00 0.00 76 1017.0
20260505214003 57 242 5.0 10.0 0.00 0.00 0.00 75 1017.1